[[{"header":{"parameterUnit":"m.s-1","parameterCategory":2,"la1":30.2991,"la2":30.254,"lo1":-89.0895,"lo2":-89.0444,"dy":0.0017,"dx":0.0017,"nx":28,"ny":28,"refTime":"2026-01-04T03:00:00:Z","depth":"0","parameterNumber":2,"parameterNumberName":"U-component_of_CURRENTS"},"data":[0,0,0,0,0,0,0,0,0,0,0,0,0,0,0,0,0,0,0,0,0,0,0,0,0,0,0,0,0,0,0,0,0,0,0,0,0,0,0,0,0,0,0,0,0,0,0,0,0,0,0,0,0,0,0,0,0,0,-0.3061,-0.3061,0,-0.3009,-0.3008,-0.3007,-0.2894,-0.2893,-0.2891,-0.2889,-0.2764,-0.2762,-0.276,0,0,0,0,0,0,0,0,0,0,0,0,0,-0.3027,-0.3028,-0.3061,-0.3061,-0.3061,-0.301,-0.3008,-0.3007,-0.2895,-0.2893,-0.289,-0.2888,-0.2764,-0.2762,-0.276,0,0,0,0,0,0,0,0,0,0,0,0,0,-0.301,-0.3028,-0.3061,-0.3003,-0.2998,-0.301,-0.3008,-0.3007,-0.2895,-0.2893,-0.289,-0.2887,-0.2765,-0.2762,-0.276,-0.2797,0,0,-0.2752,-0.2751,0,0,0,0,0,0,0,0,-0.3011,-0.3011,-0.3012,-0.3007,-0.3001,-0.2961,-0.2951,-0.2935,-0.2896,-0.2928,-0.2889,-0.2886,-0.2829,-0.2821,-0.2809,-0.2791,-0.2786,-0.2752,-0.275,-0.2749,-0.2749,0,0,0,0,0,0,0,-0.3012,-0.3012,-0.3035,-0.3012,-0.3006,-0.2968,-0.2962,-0.2947,-0.2888,-0.2925,-0.2918,-0.2923,-0.2824,-0.2812,-0.2806,-0.2784,-0.2752,-0.275,-0.2748,-0.2747,-0.2759,-0.2761,0,0,0,0,0,0,-0.3036,-0.3014,-0.3037,-0.3034,-0.3006,-0.2971,-0.2964,-0.2972,-0.2889,-0.2877,-0.2925,-0.2918,-0.2818,-0.2809,-0.2801,-0.2804,-0.2749,-0.2747,-0.2745,-0.2757,-0.2759,-0.2761,0,0,0,0,0,0,-0.3035,-0.3039,-0.3039,-0.3027,-0.3025,-0.2975,-0.2984,-0.2972,-0.2951,-0.2891,-0.2875,-0.2915,-0.2815,-0.2804,-0.2789,-0.2799,-0.2746,-0.2743,-0.2755,-0.2758,-0.276,-0.2834,0,0,0,0,0,0,-0.3035,-0.3039,-0.3043,-0.3029,-0.3026,-0.3058,-0.2987,-0.2973,-0.2961,-0.295,-0.2878,-0.2864,-0.2813,-0.2793,-0.2787,-0.2795,-0.2741,-0.2753,-0.2756,-0.276,-0.2829,-0.2839,-0.2847,0,0,0,0,0,-0.3034,-0.3053,-0.3044,-0.3046,-0.3037,-0.3061,-0.3056,-0.3007,-0.2963,-0.2973,-0.2918,-0.2865,-0.281,-0.2793,-0.2785,-0.2792,-0.2751,-0.2755,-0.2759,-0.2825,-0.2837,-0.2847,0,0,0,0,0,0,-0.3032,-0.3045,-0.3033,-0.3052,-0.3065,-0.3044,-0.3043,-0.3019,-0.2984,-0.2962,-0.2892,-0.2876,-0.2867,-0.2834,-0.2817,-0.281,-0.2772,-0.2775,-0.2825,-0.2835,-0.2844,-0.2823,-0.2739,0,0,0,0,0,-0.3043,-0.3056,-0.3072,-0.3084,-0.3097,-0.3073,-0.3071,-0.305,-0.3025,-0.3004,-0.2958,-0.2912,-0.2884,-0.2861,-0.2838,-0.2838,-0.2791,-0.284,-0.2849,-0.2856,-0.2837,-0.2793,-0.2795,-0.2775,-0.2775,-0.2775,0,0,-0.304,-0.3051,-0.3054,-0.3084,-0.3081,-0.3108,-0.3063,-0.3075,-0.3077,-0.3,-0.298,-0.2947,-0.2895,-0.2888,-0.2881,-0.2855,-0.2844,-0.2862,-0.2868,-0.2844,-0.2797,-0.2799,-0.28,-0.2778,-0.2777,-0.2777,0,0,-0.3062,-0.3063,-0.3092,-0.3114,-0.3136,-0.3129,-0.3141,-0.3138,-0.3115,-0.312,-0.3054,-0.3027,-0.2997,-0.2949,-0.2923,-0.2974,-0.29,-0.2975,-0.2989,-0.2948,-0.2948,-0.2947,-0.291,-0.2905,-0.297,-0.297,-0.297,0,-0.3053,-0.3083,-0.3104,-0.3146,-0.314,-0.3145,-0.3162,-0.3171,-0.3158,-0.3123,-0.3125,-0.3053,-0.3021,-0.2974,-0.2991,-0.2989,-0.2953,-0.2948,-0.2956,-0.2955,-0.2953,-0.2914,-0.2908,-0.2974,-0.2974,-0.2973,-0.2973,0,-0.3109,-0.3122,-0.3143,-0.3183,-0.3199,-0.3211,-0.3234,-0.3233,-0.3209,-0.3193,-0.3159,-0.3132,-0.3069,-0.3078,-0.3047,-0.3017,-0.2993,-0.2979,-0.2921,-0.2958,-0.2916,-0.2909,-0.298,-0.2979,-0.2977,-0.2976,0,0,-0.3077,-0.3158,-0.3155,-0.3146,-0.3199,-0.3197,-0.3229,-0.3214,-0.3188,-0.3205,-0.3153,-0.3144,-0.3113,-0.3083,-0.3052,-0.3026,-0.3004,-0.2999,-0.2995,-0.2948,-0.2909,-0.2829,-0.2812,-0.2986,-0.2985,-0.2984,-0.2892,0,-0.3083,-0.3129,-0.3178,-0.3178,-0.3177,-0.3191,-0.3212,-0.3208,-0.3197,-0.3169,-0.3145,-0.3108,-0.3124,-0.3087,-0.3073,-0.3014,-0.2983,-0.3029,-0.2891,-0.2886,-0.2798,-0.28,-0.2681,-0.2583,-0.2884,-0.2882,-0.2881,0,-0.3101,-0.3106,-0.3124,-0.311,-0.3114,-0.3131,-0.3084,-0.3108,-0.3105,-0.3098,-0.3076,-0.3066,-0.3033,-0.3048,-0.2978,-0.3005,-0.2958,-0.2927,-0.2922,-0.2805,-0.2789,-0.2592,-0.2556,-0.2547,-0.2869,-0.287,-0.2871,0,-0.3004,-0.3042,-0.3025,-0.3033,-0.3067,-0.3045,-0.3042,-0.3054,-0.305,-0.3034,-0.3027,-0.3005,-0.298,-0.2941,-0.291,-0.2929,-0.2828,-0.2841,-0.2723,-0.2718,-0.2565,-0.2547,-0.2483,-0.2771,-0.2772,-0.2772,-0.2772,0,-0.2956,-0.2924,-0.2972,-0.2956,-0.2894,-0.2956,-0.2912,-0.2914,-0.2946,-0.2931,-0.2972,-0.2955,-0.2952,-0.2913,-0.2882,-0.2777,-0.2803,-0.2706,-0.2678,-0.2591,-0.2578,-0.2519,-0.2559,-0.2768,-0.2769,-0.277,-0.277,0,-0.2838,-0.2899,-0.2851,-0.2862,-0.2855,-0.2796,-0.2816,-0.2804,-0.286,-0.2844,-0.284,-0.289,-0.2839,-0.283,-0.2752,-0.2719,-0.2583,-0.2586,-0.249,-0.2451,-0.2327,-0.2376,-0.2269,-0.2199,-0.243,-0.2427,-0.2425,0,-0.2771,-0.2756,-0.2742,-0.2708,-0.2701,-0.2657,-0.265,-0.2718,-0.2731,-0.2796,-0.278,-0.2763,-0.2719,-0.2605,-0.2523,-0.2421,-0.2457,-0.227,-0.228,-0.2281,-0.2316,-0.237,-0.2323,-0.212,-0.2116,-0.2112,-0.2109,0,-0.2607,-0.263,-0.26,-0.2531,-0.2502,-0.2478,-0.2477,-0.2488,-0.2592,-0.2599,-0.2601,-0.2572,-0.2496,-0.2351,-0.2252,-0.2181,-0.2218,-0.2188,-0.2201,-0.2067,-0.2105,-0.2036,-0.2243,-0.2075,-0.2079,-0.2081,-0.2083,-0.2084,-0.2458,-0.2405,-0.2397,-0.231,-0.2295,-0.2279,-0.2219,-0.2264,-0.2259,-0.2212,-0.2354,-0.2236,-0.2238,-0.2069,-0.1996,-0.186,-0.1948,-0.1817,-0.1876,-0.1932,-0.1856,-0.1991,-0.1789,-0.1791,-0.1792,-0.1794,-0.1795,0,-0.2235,-0.2229,-0.2166,-0.2095,-0.2029,-0.208,-0.2088,-0.2018,-0.1942,-0.1886,-0.1846,-0.1861,-0.1769,-0.176,-0.1691,-0.1599,-0.1565,-0.1571,-0.1626,-0.159,-0.1694,-0.1672,-0.1418,-0.1418,-0.1418,-0.1418,-0.1418,-0.1418,-0.2117,-0.2018,-0.2007,-0.184,-0.1807,-0.1694,-0.1669,-0.157,-0.1492,-0.1307,-0.1244,-0.1211,-0.143,-0.1714,-0.1628,-0.1525,-0.151,-0.1449,-0.1498,-0.1601,-0.163,-0.1657,-0.1644,-0.1389,-0.1389,-0.1314,-0.1314,-0.1314]},{"header":{"parameterUnit":"m.s-1","parameterCategory":2,"la1":30.2991,"la2":30.254,"lo1":-89.0895,"lo2":-89.0444,"dy":0.0017,"dx":0.0017,"nx":28,"ny":28,"refTime":"2026-01-04T03:00:00:Z","depth":"0","parameterNumber":3,"parameterNumberName":"V-component_of_CURRENTS"},"data":[0,0,0,0,0,0,0,0,0,0,0,0,0,0,0,0,0,0,0,0,0,0,0,0,0,0,0,0,0,0,0,0,0,0,0,0,0,0,0,0,0,0,0,0,0,0,0,0,0,0,0,0,0,0,0,0,0,0,-0.0566,-0.0565,0,-0.0456,-0.0455,-0.0454,-0.0389,-0.0388,-0.0388,-0.0387,-0.0283,-0.028,-0.0278,0,0,0,0,0,0,0,0,0,0,0,0,0,-0.072,-0.0718,-0.0566,-0.0565,-0.0563,-0.0456,-0.0455,-0.0453,-0.0389,-0.0388,-0.0388,-0.0387,-0.0283,-0.0281,-0.0278,0,0,0,0,0,0,0,0,0,0,0,0,0,-0.0638,-0.0717,-0.0566,-0.0517,-0.0511,-0.0456,-0.0455,-0.0453,-0.0389,-0.0388,-0.0387,-0.0387,-0.0284,-0.0281,-0.0277,-0.0269,0,0,-0.0267,-0.0265,0,0,0,0,0,0,0,0,-0.0643,-0.0633,-0.0525,-0.052,-0.0513,-0.0434,-0.047,-0.0391,-0.0389,-0.0437,-0.0387,-0.0386,-0.0333,-0.0325,-0.0309,-0.0264,-0.026,-0.0266,-0.0264,-0.0263,-0.0262,0,0,0,0,0,0,0,-0.0649,-0.0637,-0.0524,-0.0524,-0.0516,-0.0499,-0.0487,-0.0455,-0.0392,-0.0433,-0.0427,-0.0412,-0.033,-0.0312,-0.0306,-0.0258,-0.0266,-0.0263,-0.0261,-0.026,-0.0176,-0.0176,0,0,0,0,0,0,-0.0659,-0.0642,-0.0528,-0.0521,-0.0576,-0.0497,-0.0483,-0.0461,-0.0392,-0.038,-0.0413,-0.041,-0.0319,-0.031,-0.0302,-0.0269,-0.0263,-0.0259,-0.0257,-0.0176,-0.0176,-0.0176,0,0,0,0,0,0,-0.0662,-0.0649,-0.0532,-0.0578,-0.0562,-0.0495,-0.0471,-0.046,-0.0438,-0.0376,-0.0365,-0.0403,-0.0318,-0.0307,-0.0279,-0.0265,-0.0258,-0.0254,-0.0176,-0.0176,-0.0176,-0.0215,0,0,0,0,0,0,-0.0667,-0.0651,-0.0641,-0.0579,-0.0559,-0.0504,-0.0471,-0.0458,-0.0429,-0.0424,-0.0364,-0.0353,-0.0316,-0.0284,-0.0275,-0.026,-0.0252,-0.0177,-0.0176,-0.0176,-0.0214,-0.0217,-0.0219,0,0,0,0,0,-0.0673,-0.0664,-0.0641,-0.0627,-0.0546,-0.0504,-0.0493,-0.0445,-0.043,-0.0423,-0.0387,-0.0355,-0.0276,-0.0282,-0.0271,-0.0255,-0.0177,-0.0176,-0.0176,-0.0213,-0.0216,-0.0219,0,0,0,0,0,0,-0.0726,-0.0655,-0.0628,-0.0597,-0.0555,-0.0492,-0.0482,-0.045,-0.0416,-0.0414,-0.036,-0.0347,-0.0314,-0.0285,-0.0293,-0.023,-0.0218,-0.0216,-0.025,-0.0253,-0.0255,-0.0271,-0.0249,0,0,0,0,0,-0.0733,-0.071,-0.0641,-0.0621,-0.0601,-0.0545,-0.0522,-0.0489,-0.0449,-0.0432,-0.039,-0.0347,-0.0305,-0.0282,-0.0246,-0.0218,-0.0172,-0.0198,-0.0201,-0.0203,-0.0209,-0.012,-0.0115,-0.0176,-0.0176,-0.0176,0,0,-0.075,-0.0708,-0.0695,-0.0631,-0.0597,-0.058,-0.053,-0.0502,-0.0484,-0.0428,-0.0402,-0.0357,-0.0302,-0.0266,-0.0248,-0.0239,-0.0163,-0.0203,-0.0205,-0.0209,-0.0119,-0.0113,-0.0108,-0.0175,-0.0175,-0.0175,0,0,-0.0791,-0.0735,-0.0739,-0.0705,-0.0653,-0.061,-0.0605,-0.0545,-0.0512,-0.0482,-0.0432,-0.0382,-0.033,-0.0277,-0.0246,-0.024,-0.018,-0.0228,-0.0247,-0.0161,-0.0155,-0.0149,-0.009,-0.0078,-0.0226,-0.0226,-0.0226,0,-0.082,-0.08,-0.0736,-0.0732,-0.0709,-0.063,-0.0634,-0.0588,-0.0526,-0.0495,-0.0483,-0.0374,-0.0331,-0.0263,-0.0264,-0.0243,-0.0196,-0.0241,-0.0163,-0.0156,-0.0149,-0.009,-0.0077,-0.0228,-0.0227,-0.0227,-0.0227,0,-0.0867,-0.0846,-0.0846,-0.081,-0.0779,-0.0765,-0.0693,-0.0657,-0.0609,-0.0553,-0.0479,-0.0409,-0.034,-0.0314,-0.0291,-0.0219,-0.0203,-0.0177,-0.0156,-0.0145,-0.0084,-0.0069,-0.023,-0.023,-0.0229,-0.0229,0,0,-0.0944,-0.0891,-0.0891,-0.087,-0.0816,-0.0783,-0.0759,-0.0691,-0.0648,-0.0578,-0.0521,-0.044,-0.0383,-0.0346,-0.0288,-0.0218,-0.0137,-0.019,-0.0184,-0.0133,0.0038,0.0078,0.0097,-0.0093,-0.0091,-0.0089,0.0059,0,-0.1002,-0.1006,-0.0965,-0.0952,-0.0939,-0.0861,-0.0832,-0.0759,-0.0685,-0.0607,-0.0504,-0.043,-0.0397,-0.0355,-0.0281,-0.0175,-0.01,-0.018,0.002,0.0026,0.006,0.0116,0.0175,0.0315,0.0074,0.0076,0.0078,0,-0.107,-0.1047,-0.1067,-0.0988,-0.0975,-0.0956,-0.0867,-0.0827,-0.0707,-0.0651,-0.0557,-0.047,-0.0363,-0.0332,-0.014,-0.0194,-0.0089,-0.0003,0.0006,0.0066,0.0094,0.0267,0.035,0.0547,0.0101,0.0099,0.0097,0,-0.1151,-0.1108,-0.112,-0.1102,-0.1022,-0.1,-0.0941,-0.0841,-0.0796,-0.0667,-0.0622,-0.0475,-0.0395,-0.0249,-0.009,-0.0106,0.0125,0.0135,0.0276,0.0279,0.038,0.0388,0.0678,0.0287,0.0287,0.0286,0.0286,0,-0.1232,-0.1222,-0.1146,-0.1148,-0.1107,-0.104,-0.0995,-0.0913,-0.0826,-0.0767,-0.0642,-0.0566,-0.0369,-0.0218,-0.0081,0.0139,0.0142,0.0286,0.0333,0.0366,0.037,0.0585,0.0644,0.0292,0.0291,0.029,0.0289,0,-0.1332,-0.1301,-0.1274,-0.1187,-0.1154,-0.1117,-0.1026,-0.0993,-0.0904,-0.0828,-0.0793,-0.0618,-0.0417,-0.0219,0.0035,0.016,0.0491,0.0441,0.0449,0.0494,0.0791,0.0842,0.1141,0.126,0.0623,0.0625,0.0627,0,-0.1384,-0.1399,-0.1306,-0.1276,-0.1237,-0.1175,-0.1145,-0.1044,-0.1016,-0.0857,-0.083,-0.0617,-0.0452,-0.0074,0.0192,0.0471,0.0609,0.0686,0.0674,0.0838,0.0931,0.0963,0.1042,0.0792,0.0795,0.0797,0.0799,0,-0.147,-0.1446,-0.1415,-0.1346,-0.1304,-0.1262,-0.1203,-0.12,-0.1092,-0.0987,-0.0829,-0.0675,-0.0311,0.0049,0.0406,0.0571,0.0842,0.0743,0.0942,0.1114,0.1144,0.1269,0.0636,0.0821,0.0818,0.0817,0.0816,0.0815,-0.1511,-0.1509,-0.1468,-0.1401,-0.135,-0.1338,-0.1308,-0.1244,-0.1159,-0.0963,-0.0821,-0.0465,-0.0034,0.0486,0.0665,0.1099,0.1038,0.1242,0.1297,0.1319,0.1429,0.0822,0.1035,0.1035,0.1034,0.1033,0.1032,0,-0.1545,-0.1555,-0.1516,-0.1442,-0.1404,-0.1362,-0.1335,-0.1275,-0.1151,-0.0891,-0.0651,0.0016,0.0476,0.0888,0.1417,0.1654,0.1702,0.1772,0.1859,0.1918,0.143,0.1433,0.1709,0.1709,0.1709,0.1708,0.1708,0.1708,-0.1559,-0.1572,-0.156,-0.1506,-0.1454,-0.1401,-0.1386,-0.1234,-0.1028,-0.0553,-0.008,0.0245,0.0851,0.1642,0.2144,0.2184,0.2405,0.2371,0.2481,0.2161,0.2116,0.2073,0.2096,0.2506,0.2507,0.2976,0.298,0.2984]}],[{"header":{"parameterUnit":"m.s-1","parameterCategory":2,"la1":30.2991,"la2":30.254,"lo1":-89.0895,"lo2":-89.0444,"dy":0.0017,"dx":0.0017,"nx":28,"ny":28,"refTime":"2026-01-04T03:00:00:Z","depth":"2","parameterNumber":2,"parameterNumberName":"U-component_of_CURRENTS"},"data":[0,0,0,0,0,0,0,0,0,0,0,0,0,0,0,0,0,0,0,0,0,0,0,0,0,0,0,0,0,0,0,0,0,0,0,0,0,0,0,0,0,0,0,0,0,0,0,0,0,0,0,0,0,0,0,0,0,0,-0.2439,-0.244,0,-0.2495,-0.2495,-0.2496,-0.2486,-0.2485,-0.2484,-0.2483,-0.2508,-0.251,-0.2511,0,0,0,0,0,0,0,0,0,0,0,0,0,-0.2343,-0.2344,-0.2439,-0.244,-0.2441,-0.2495,-0.2495,-0.2496,-0.2486,-0.2485,-0.2484,-0.2483,-0.2508,-0.251,-0.2511,0,0,0,0,0,0,0,0,0,0,0,0,0,-0.2389,-0.2345,-0.2439,-0.2443,-0.2444,-0.2495,-0.2495,-0.2496,-0.2486,-0.2485,-0.2484,-0.2482,-0.2507,-0.2509,-0.2512,-0.2551,0,0,-0.2518,-0.2519,0,0,0,0,0,0,0,0,-0.2386,-0.2392,-0.2442,-0.2443,-0.2445,-0.2483,-0.2471,-0.2513,-0.2486,-0.2469,-0.2483,-0.2482,-0.2499,-0.2502,-0.2513,-0.2552,-0.2553,-0.2519,-0.252,-0.2521,-0.2521,0,0,0,0,0,0,0,-0.2383,-0.239,-0.246,-0.2443,-0.2445,-0.2449,-0.2454,-0.2479,-0.2489,-0.247,-0.247,-0.2479,-0.2499,-0.2511,-0.2514,-0.2553,-0.2518,-0.252,-0.2522,-0.2523,-0.2596,-0.2597,0,0,0,0,0,0,-0.238,-0.2387,-0.2458,-0.2461,-0.2413,-0.2452,-0.2457,-0.2471,-0.2489,-0.2491,-0.248,-0.2478,-0.2508,-0.2511,-0.2515,-0.255,-0.2521,-0.2523,-0.2524,-0.2596,-0.2596,-0.2597,0,0,0,0,0,0,-0.2378,-0.2386,-0.2456,-0.2426,-0.2435,-0.2455,-0.2471,-0.2473,-0.249,-0.2497,-0.2498,-0.2495,-0.2507,-0.2512,-0.2532,-0.2551,-0.2524,-0.2526,-0.2595,-0.2596,-0.2597,-0.2628,0,0,0,0,0,0,-0.2375,-0.2385,-0.2393,-0.2426,-0.2437,-0.2486,-0.2472,-0.2475,-0.2498,-0.2496,-0.2511,-0.2511,-0.2507,-0.2529,-0.2534,-0.2554,-0.2528,-0.2594,-0.2595,-0.2596,-0.2626,-0.263,-0.2633,0,0,0,0,0,-0.2371,-0.239,-0.2393,-0.2402,-0.2448,-0.2487,-0.2494,-0.2502,-0.25,-0.2511,-0.2514,-0.2511,-0.254,-0.2531,-0.2538,-0.2558,-0.2593,-0.2595,-0.2596,-0.2625,-0.2629,-0.2633,0,0,0,0,0,0,-0.235,-0.2392,-0.2396,-0.2425,-0.2454,-0.2486,-0.25,-0.2512,-0.2527,-0.2525,-0.2525,-0.2527,-0.255,-0.2552,-0.2543,-0.2581,-0.2565,-0.2567,-0.2584,-0.2589,-0.2592,-0.259,-0.2529,0,0,0,0,0,-0.2351,-0.2372,-0.2413,-0.2432,-0.2452,-0.248,-0.2497,-0.2508,-0.2528,-0.2534,-0.2541,-0.2549,-0.2563,-0.2573,-0.2582,-0.2613,-0.2599,-0.2628,-0.2631,-0.2634,-0.2636,-0.2636,-0.2639,-0.2602,-0.2602,-0.2602,0,0,-0.2344,-0.2371,-0.2381,-0.2429,-0.2451,-0.2487,-0.2487,-0.2521,-0.2545,-0.2536,-0.2562,-0.2565,-0.2573,-0.2596,-0.2607,-0.26,-0.2634,-0.2636,-0.2639,-0.2639,-0.2638,-0.2641,-0.2645,-0.2603,-0.2603,-0.2602,0,0,-0.2347,-0.2372,-0.2393,-0.2425,-0.2469,-0.2494,-0.2508,-0.2548,-0.2559,-0.2591,-0.2584,-0.2598,-0.2623,-0.2629,-0.2638,-0.2672,-0.2651,-0.2674,-0.2695,-0.2696,-0.2698,-0.2701,-0.2671,-0.2671,-0.2678,-0.2678,-0.2678,0,-0.2337,-0.2374,-0.2404,-0.244,-0.2468,-0.25,-0.2536,-0.2561,-0.2596,-0.2611,-0.2599,-0.2635,-0.264,-0.2673,-0.2675,-0.2681,-0.2663,-0.2679,-0.27,-0.2702,-0.2704,-0.2673,-0.2673,-0.268,-0.2679,-0.2679,-0.2679,0,-0.2361,-0.2393,-0.2412,-0.2466,-0.25,-0.2538,-0.2582,-0.2611,-0.2629,-0.2648,-0.2679,-0.2682,-0.27,-0.2707,-0.2701,-0.2725,-0.27,-0.2702,-0.2688,-0.271,-0.2676,-0.2674,-0.2682,-0.2681,-0.2681,-0.268,0,0,-0.2325,-0.2413,-0.2417,-0.2449,-0.2521,-0.2552,-0.2602,-0.2656,-0.2683,-0.2707,-0.2731,-0.2756,-0.2752,-0.276,-0.2758,-0.2758,-0.275,-0.2734,-0.2734,-0.2703,-0.2724,-0.2626,-0.2614,-0.2753,-0.2754,-0.2754,-0.2689,0,-0.2332,-0.2401,-0.2444,-0.2503,-0.2544,-0.2597,-0.2639,-0.2687,-0.2717,-0.2744,-0.2761,-0.2778,-0.2776,-0.2776,-0.2781,-0.2758,-0.275,-0.2766,-0.271,-0.2707,-0.2617,-0.2611,-0.2426,-0.2345,-0.2687,-0.2687,-0.2687,0,-0.2333,-0.2384,-0.2446,-0.253,-0.2552,-0.2589,-0.2663,-0.2705,-0.2757,-0.2776,-0.2804,-0.2807,-0.282,-0.2804,-0.2788,-0.2795,-0.2761,-0.274,-0.2737,-0.2634,-0.2607,-0.2383,-0.233,-0.2684,-0.2684,-0.2684,-0.2684,0,-0.2284,-0.2378,-0.2429,-0.2459,-0.2559,-0.2591,-0.2641,-0.2707,-0.2737,-0.2786,-0.2799,-0.2826,-0.282,-0.2805,-0.2764,-0.2774,-0.2722,-0.2733,-0.2613,-0.2605,-0.2429,-0.2405,-0.2713,-0.2713,-0.2714,-0.2714,-0.2714,0,-0.2269,-0.2302,-0.241,-0.2434,-0.2484,-0.2566,-0.261,-0.2664,-0.2725,-0.2746,-0.2801,-0.2804,-0.2818,-0.2793,-0.2761,-0.2669,-0.2721,-0.2605,-0.2582,-0.2432,-0.241,-0.2698,-0.2697,-0.2711,-0.2712,-0.2712,-0.2713,0,-0.2188,-0.2268,-0.232,-0.2427,-0.2458,-0.2486,-0.2577,-0.2602,-0.2682,-0.2706,-0.2718,-0.2774,-0.2737,-0.2729,-0.2686,-0.2643,-0.2581,-0.2535,-0.2341,-0.2297,-0.2463,-0.2465,-0.2395,-0.2391,-0.2388,-0.2385,-0.2383,0,-0.2152,-0.2173,-0.228,-0.2302,-0.2344,-0.2405,-0.2437,-0.255,-0.258,-0.2671,-0.2666,-0.2669,-0.2625,-0.2536,-0.2455,-0.2363,-0.2467,-0.2157,-0.2151,-0.2446,-0.2431,-0.2438,-0.2444,-0.1924,-0.1918,-0.1914,-0.191,0,-0.206,-0.2097,-0.214,-0.2189,-0.2229,-0.2274,-0.2338,-0.2358,-0.2476,-0.2506,-0.2515,-0.2489,-0.2415,-0.2234,-0.2139,-0.2072,-0.2161,-0.2054,-0.2405,-0.204,-0.1998,-0.1985,-0.2007,-0.1866,-0.1871,-0.1874,-0.1876,-0.1878,-0.1969,-0.1968,-0.2021,-0.205,-0.2094,-0.2109,-0.2084,-0.2166,-0.2187,-0.2195,-0.2286,-0.2187,-0.2158,-0.1898,-0.179,-0.1709,-0.1862,-0.1795,-0.1811,-0.1833,-0.1796,-0.1751,-0.1565,-0.1567,-0.1569,-0.1571,-0.1573,0,-0.184,-0.1855,-0.1876,-0.1905,-0.1879,-0.1955,-0.1979,-0.1921,-0.1881,-0.1936,-0.1914,-0.1706,-0.1585,-0.156,-0.1361,-0.1323,-0.1325,-0.1275,-0.1288,-0.133,-0.1369,-0.1311,-0.095,-0.0948,-0.0946,-0.0945,0,0,-0.1776,-0.1743,-0.1752,-0.1672,-0.1679,-0.1579,-0.1546,-0.1496,-0.1485,-0.142,-0.1386,-0.1498,-0.1511,-0.1238,-0.1168,-0.1025,-0.1166,-0.0968,-0.1466,-0.1522,-0.1558,-0.1663,-0.1621,0,0,0,0,0]},{"header":{"parameterUnit":"m.s-1","parameterCategory":2,"la1":30.2991,"la2":30.254,"lo1":-89.0895,"lo2":-89.0444,"dy":0.0017,"dx":0.0017,"nx":28,"ny":28,"refTime":"2026-01-04T03:00:00:Z","depth":"2","parameterNumber":3,"parameterNumberName":"V-component_of_CURRENTS"},"data":[0,0,0,0,0,0,0,0,0,0,0,0,0,0,0,0,0,0,0,0,0,0,0,0,0,0,0,0,0,0,0,0,0,0,0,0,0,0,0,0,0,0,0,0,0,0,0,0,0,0,0,0,0,0,0,0,0,0,-0.0229,-0.0228,0,-0.0162,-0.0161,-0.016,-0.0101,-0.01,-0.01,-0.0099,0.0035,0.0038,0.0041,0,0,0,0,0,0,0,0,0,0,0,0,0,-0.0246,-0.0246,-0.0229,-0.0228,-0.0228,-0.0162,-0.0161,-0.0159,-0.0101,-0.01,-0.01,-0.0099,0.0034,0.0037,0.0041,0,0,0,0,0,0,0,0,0,0,0,0,0,-0.0213,-0.0246,-0.0229,-0.0192,-0.0188,-0.0162,-0.0161,-0.0159,-0.0101,-0.01,-0.0099,-0.0099,0.0033,0.0037,0.0042,0.0056,0,0,0.0056,0.0058,0,0,0,0,0,0,0,0,-0.0215,-0.0212,-0.0198,-0.0195,-0.019,-0.0141,-0.0117,-0.0085,-0.0101,-0.0132,-0.0099,-0.0098,-0.002,-0.0011,0.0003,0.0062,0.0068,0.0056,0.0059,0.0061,0.0063,0,0,0,0,0,0,0,-0.0217,-0.0214,-0.02,-0.0198,-0.0193,-0.0158,-0.0153,-0.0111,-0.0078,-0.0129,-0.0125,-0.0121,-0.0017,-0.0002,0.0006,0.007,0.0056,0.006,0.0063,0.0065,0.0162,0.0162,0,0,0,0,0,0,-0.0234,-0.0217,-0.0202,-0.0198,-0.0203,-0.0159,-0.0153,-0.0156,-0.0079,-0.0068,-0.0122,-0.0119,-0.0011,0.0001,0.0011,0.0041,0.0061,0.0066,0.0068,0.0162,0.0162,0.0162,0,0,0,0,0,0,-0.0235,-0.0234,-0.0205,-0.0207,-0.0201,-0.016,-0.0163,-0.0155,-0.0138,-0.0075,-0.0062,-0.0114,-0.001,0.0005,0.0045,0.0046,0.0068,0.0072,0.0163,0.0162,0.0162,0.0095,0,0,0,0,0,0,-0.0236,-0.0234,-0.0243,-0.0209,-0.0202,-0.0196,-0.0164,-0.0154,-0.0138,-0.0133,-0.0064,-0.0051,-0.0008,0.0037,0.005,0.0053,0.0076,0.0163,0.0163,0.0162,0.0097,0.0092,0.0088,0,0,0,0,0,-0.0237,-0.0255,-0.0244,-0.0242,-0.0215,-0.0197,-0.019,-0.0156,-0.0139,-0.0137,-0.0091,-0.0053,0.0044,0.0041,0.0055,0.006,0.0163,0.0163,0.0162,0.0099,0.0093,0.0088,0,0,0,0,0,0,-0.0268,-0.025,-0.0237,-0.0249,-0.0227,-0.0188,-0.0185,-0.0162,-0.0125,-0.0118,-0.0056,-0.004,-0.0006,0.0034,0.003,0.0086,0.011,0.0112,0.0057,0.0052,0.0047,0.0038,0.0079,0,0,0,0,0,-0.0281,-0.0287,-0.0261,-0.027,-0.0262,-0.0224,-0.0213,-0.0191,-0.0155,-0.0138,-0.009,-0.004,0.0002,0.0031,0.0072,0.0104,0.0148,0.0117,0.0112,0.0108,0.011,0.0167,0.0168,0.016,0.016,0.016,0,0,-0.0295,-0.0287,-0.029,-0.0276,-0.0256,-0.0252,-0.0215,-0.0204,-0.0194,-0.0129,-0.0101,-0.0057,0.0005,0.0039,0.0059,0.0075,0.0132,0.0107,0.0103,0.0108,0.0166,0.0167,0.0168,0.016,0.016,0.016,0,0,-0.0329,-0.0321,-0.0336,-0.0323,-0.0302,-0.0277,-0.0278,-0.0241,-0.0217,-0.0189,-0.014,-0.0096,-0.0034,0.0014,0.0046,0.004,0.0099,0.0051,0.003,0.0084,0.0086,0.0087,0.0139,0.0145,0.0055,0.0055,0.0055,0,-0.0347,-0.0364,-0.0337,-0.0347,-0.0341,-0.0293,-0.0304,-0.0274,-0.0227,-0.0207,-0.019,-0.0094,-0.0043,0.0009,0.0008,0.0031,0.0069,0.0045,0.0078,0.0081,0.0083,0.0136,0.0144,0.0052,0.0052,0.0053,0.0053,0,-0.0391,-0.0401,-0.041,-0.0404,-0.0393,-0.0396,-0.0355,-0.0334,-0.03,-0.0264,-0.0212,-0.0143,-0.0084,-0.0062,-0.0025,0.0019,0.0041,0.0059,0.009,0.008,0.0136,0.0146,0.0047,0.0048,0.0049,0.005,0,0,-0.0438,-0.0441,-0.0444,-0.0455,-0.0426,-0.0426,-0.0404,-0.0371,-0.0357,-0.0298,-0.0269,-0.0191,-0.015,-0.0112,-0.0057,-0.0003,0.0049,0.0032,0.0036,0.0079,0.0168,0.0199,0.0214,0.007,0.0072,0.0073,0.0198,0,-0.0479,-0.0521,-0.0501,-0.0528,-0.0545,-0.0495,-0.0482,-0.0442,-0.0393,-0.0351,-0.0264,-0.0218,-0.017,-0.0142,-0.0082,0.0014,0.0072,0.0013,0.0176,0.0181,0.0207,0.0225,0.0202,0.0313,0.0208,0.021,0.0211,0,-0.0527,-0.055,-0.0591,-0.0599,-0.06,-0.0603,-0.0573,-0.0553,-0.0472,-0.0432,-0.0361,-0.029,-0.0197,-0.0159,0.0004,-0.0038,0.0058,0.0136,0.0143,0.0204,0.0231,0.0309,0.0336,0.0228,0.0227,0.0225,0.0224,0,-0.0585,-0.0612,-0.0651,-0.0654,-0.065,-0.0653,-0.0642,-0.0581,-0.0562,-0.0478,-0.0447,-0.0332,-0.0265,-0.014,0.0024,0.0014,0.0206,0.0215,0.0338,0.0341,0.0372,0.0375,0.0335,0.0335,0.0334,0.0334,0.0334,0,-0.064,-0.0671,-0.0686,-0.071,-0.0753,-0.072,-0.0735,-0.07,-0.0639,-0.061,-0.0497,-0.0437,-0.0256,-0.0121,0.0014,0.021,0.0203,0.0344,0.038,0.0347,0.0347,0.0311,0.0307,0.0339,0.0338,0.0337,0.0336,0,-0.0694,-0.0703,-0.0756,-0.0776,-0.0784,-0.0816,-0.081,-0.081,-0.0742,-0.0695,-0.0668,-0.0504,-0.0322,-0.0137,0.0087,0.0205,0.038,0.0452,0.04,0.0428,0.048,0.047,0.0599,0.0601,0.0603,0.0604,0.0606,0,-0.0724,-0.0756,-0.0816,-0.0858,-0.0872,-0.0905,-0.0921,-0.0872,-0.0859,-0.0728,-0.0706,-0.0516,-0.0362,-0.0028,0.0204,0.0452,0.0447,0.0573,0.0557,0.0487,0.0509,0.0497,0.0485,0.0572,0.0573,0.0574,0.0574,0,-0.0776,-0.0798,-0.0845,-0.0937,-0.098,-0.1019,-0.1031,-0.1035,-0.0951,-0.0872,-0.0726,-0.0585,-0.0257,0.0027,0.0339,0.0477,0.0527,0.0598,0.0557,0.05,0.047,0.0489,0.0477,0.0581,0.058,0.058,0.0579,0.0579,-0.0808,-0.0861,-0.0926,-0.1007,-0.1068,-0.1111,-0.1126,-0.1101,-0.1048,-0.0899,-0.0752,-0.0502,-0.0234,0.022,0.0435,0.0627,0.0623,0.0678,0.0673,0.0667,0.0633,0.0608,0.0738,0.0738,0.0738,0.0739,0.0739,0,-0.0838,-0.0898,-0.0988,-0.1082,-0.1152,-0.1161,-0.1177,-0.1145,-0.1065,-0.089,-0.0701,-0.0364,-0.0043,0.0219,0.0536,0.0728,0.0702,0.0749,0.068,0.0673,0.0667,0.063,0.0736,0.0736,0.0737,0.0737,0,0,-0.0857,-0.094,-0.0989,-0.1115,-0.1181,-0.1217,-0.1215,-0.1144,-0.1017,-0.0816,-0.0613,-0.0354,-0.0024,0.0201,0.0436,0.0596,0.0581,0.0606,0.0591,0.0475,0.0467,0.0613,0.0548,0,0,0,0,0]}],[{"header":{"parameterUnit":"m.s-1","parameterCategory":2,"la1":30.2991,"la2":30.254,"lo1":-89.0895,"lo2":-89.0444,"dy":0.0017,"dx":0.0017,"nx":28,"ny":28,"refTime":"2026-01-04T03:00:00:Z","depth":"4","parameterNumber":2,"parameterNumberName":"U-component_of_CURRENTS"},"data":[0,0,0,0,0,0,0,0,0,0,0,0,0,0,0,0,0,0,0,0,0,0,0,0,0,0,0,0,0,0,0,0,0,0,0,0,0,0,0,0,0,0,0,0,0,0,0,0,0,0,0,0,0,0,0,0,0,0,-0.1672,-0.1673,0,-0.1749,-0.175,-0.175,-0.179,-0.179,-0.179,-0.179,-0.1873,-0.1875,-0.1877,0,0,0,0,0,0,0,0,0,0,0,0,0,-0.1586,-0.1587,-0.1672,-0.1673,-0.1674,-0.1749,-0.175,-0.1751,-0.179,-0.179,-0.179,-0.179,-0.1873,-0.1875,-0.1878,0,0,0,0,0,0,0,0,0,0,0,0,0,-0.1638,-0.1587,-0.1672,-0.1703,-0.1707,-0.1749,-0.175,-0.1751,-0.179,-0.179,-0.179,-0.179,-0.1872,-0.1875,-0.1878,-0.1894,0,0,-0.1888,-0.1889,0,0,0,0,0,0,0,0,-0.1635,-0.1641,-0.1698,-0.1701,-0.1706,-0.1761,-0.175,-0.1799,-0.179,-0.1758,-0.179,-0.179,-0.1837,-0.1843,-0.1855,-0.1898,-0.1902,-0.1888,-0.189,-0.1891,-0.1892,0,0,0,0,0,0,0,-0.1631,-0.1638,-0.1702,-0.1699,-0.1704,-0.1722,-0.173,-0.1759,-0.1795,-0.176,-0.1764,-0.1773,-0.1839,-0.1852,-0.1858,-0.1903,-0.1888,-0.1891,-0.1893,-0.1894,-0.2035,-0.2037,0,0,0,0,0,0,-0.1622,-0.1635,-0.1699,-0.1704,-0.1671,-0.1724,-0.1732,-0.1742,-0.1794,-0.1803,-0.1773,-0.1775,-0.1847,-0.1854,-0.1861,-0.1954,-0.1891,-0.1894,-0.1896,-0.2033,-0.2036,-0.2038,0,0,0,0,0,0,-0.162,-0.1627,-0.1696,-0.1672,-0.1682,-0.1725,-0.1736,-0.1744,-0.1784,-0.1804,-0.1812,-0.1809,-0.1847,-0.1856,-0.1915,-0.1955,-0.1896,-0.1898,-0.2031,-0.2034,-0.2037,-0.2095,0,0,0,0,0,0,-0.1617,-0.1626,-0.1645,-0.1671,-0.1683,-0.1739,-0.1736,-0.1745,-0.1789,-0.1792,-0.1837,-0.1844,-0.1848,-0.191,-0.1918,-0.1958,-0.1901,-0.2029,-0.2032,-0.2036,-0.2091,-0.2099,-0.2107,0,0,0,0,0,-0.1614,-0.1636,-0.1645,-0.1654,-0.1703,-0.174,-0.1749,-0.1779,-0.179,-0.1815,-0.1849,-0.1844,-0.1938,-0.1915,-0.1923,-0.1965,-0.2027,-0.2031,-0.2035,-0.2087,-0.2098,-0.2107,0,0,0,0,0,0,-0.1609,-0.1642,-0.1654,-0.1686,-0.1719,-0.1748,-0.1778,-0.1796,-0.1843,-0.1856,-0.187,-0.1879,-0.1944,-0.1948,-0.1922,-0.2016,-0.1981,-0.1987,-0.2017,-0.2028,-0.2035,-0.2024,-0.1904,0,0,0,0,0,-0.1616,-0.1642,-0.1674,-0.1702,-0.1721,-0.1755,-0.178,-0.1803,-0.1839,-0.186,-0.1893,-0.1929,-0.1964,-0.1991,-0.2021,-0.2075,-0.2055,-0.2107,-0.2115,-0.2122,-0.2119,-0.2132,-0.214,-0.2051,-0.2051,-0.2051,0,0,-0.1622,-0.1645,-0.1661,-0.1704,-0.1733,-0.1774,-0.1772,-0.182,-0.1862,-0.1862,-0.194,-0.1962,-0.1985,-0.2045,-0.2074,-0.2057,-0.2136,-0.2127,-0.2133,-0.2126,-0.2137,-0.2145,-0.2153,-0.2054,-0.2054,-0.2053,0,0,-0.1639,-0.1669,-0.1696,-0.1731,-0.1781,-0.1806,-0.1826,-0.1875,-0.1909,-0.1976,-0.1987,-0.2034,-0.2096,-0.2117,-0.2134,-0.2206,-0.2178,-0.2221,-0.2257,-0.2269,-0.2276,-0.2282,-0.2257,-0.226,-0.2226,-0.2226,-0.2226,0,-0.1648,-0.1685,-0.1711,-0.175,-0.1787,-0.1824,-0.1868,-0.1908,-0.1974,-0.2005,-0.2012,-0.2105,-0.2128,-0.2188,-0.2213,-0.2225,-0.2211,-0.2217,-0.2278,-0.2284,-0.2288,-0.2262,-0.2264,-0.223,-0.2229,-0.2229,-0.2229,0,-0.1678,-0.1725,-0.1748,-0.1808,-0.1851,-0.1899,-0.1952,-0.2006,-0.2051,-0.2084,-0.2163,-0.2194,-0.2242,-0.2263,-0.2262,-0.2316,-0.2287,-0.2284,-0.2248,-0.23,-0.2269,-0.2271,-0.2234,-0.2233,-0.2232,-0.2231,0,0,-0.1651,-0.175,-0.1762,-0.1805,-0.189,-0.1925,-0.2005,-0.2076,-0.2124,-0.2191,-0.2244,-0.2314,-0.2323,-0.2342,-0.2351,-0.2365,-0.2387,-0.2342,-0.2341,-0.2307,-0.2388,-0.2216,-0.2201,-0.2396,-0.2397,-0.2398,-0.2347,0,-0.167,-0.175,-0.1799,-0.1887,-0.1933,-0.2001,-0.2067,-0.2138,-0.2195,-0.2255,-0.2296,-0.2351,-0.2356,-0.2379,-0.2399,-0.2391,-0.2396,-0.2399,-0.2351,-0.2349,-0.2182,-0.2199,-0.2401,-0.2348,-0.2349,-0.2349,-0.2349,0,-0.1675,-0.1734,-0.1821,-0.1929,-0.1956,-0.2018,-0.2124,-0.2188,-0.2273,-0.2314,-0.2372,-0.2394,-0.2439,-0.2427,-0.2443,-0.2443,-0.2422,-0.2408,-0.2405,-0.2223,-0.218,-0.2289,-0.2351,-0.2351,-0.2351,-0.2351,-0.2351,0,-0.1626,-0.1745,-0.1818,-0.1858,-0.1983,-0.2042,-0.2111,-0.2208,-0.2258,-0.2346,-0.2377,-0.2435,-0.2456,-0.2458,-0.2434,-0.2444,-0.2418,-0.2428,-0.2251,-0.2238,-0.2382,-0.2377,-0.243,-0.243,-0.2431,-0.2431,-0.2431,0,-0.1608,-0.1669,-0.1808,-0.1847,-0.1933,-0.203,-0.2116,-0.2189,-0.2279,-0.2316,-0.2399,-0.2413,-0.2466,-0.2456,-0.2436,-0.2326,-0.2421,-0.2243,-0.2213,-0.2407,-0.2405,-0.2382,-0.2377,-0.2429,-0.2429,-0.243,-0.243,0,-0.1529,-0.1627,-0.1713,-0.1861,-0.1911,-0.1968,-0.2106,-0.2149,-0.2256,-0.2302,-0.2327,-0.2399,-0.2374,-0.2388,-0.2371,-0.2299,-0.2233,-0.2174,-0.2352,-0.2335,-0.2045,-0.2044,-0.1969,-0.1962,-0.1957,-0.1952,-0.1948,0,-0.1491,-0.1531,-0.1695,-0.1743,-0.1815,-0.192,-0.1977,-0.2115,-0.2151,-0.2264,-0.2257,-0.2283,-0.2304,-0.2128,-0.2174,-0.2098,-0.2081,-0.2034,-0.2064,-0.2018,-0.1998,-0.2006,-0.2013,-0.1939,-0.1938,-0.1937,-0.1935,0,-0.1409,-0.1481,-0.1549,-0.1647,-0.1727,-0.18,-0.1895,-0.1906,-0.2038,-0.2158,-0.2113,-0.2083,-0.204,-0.2005,-0.1947,-0.1908,-0.206,-0.1977,-0.1989,-0.2016,-0.1982,-0.197,-0.1982,-0.1916,-0.1919,-0.1921,-0.1922,0,-0.134,-0.1361,-0.1457,-0.1523,-0.1614,-0.1637,-0.1715,-0.1748,-0.1802,-0.1934,-0.1909,-0.194,-0.2011,-0.1903,-0.1858,-0.179,-0.1773,-0.1726,-0.1751,-0.1773,-0.1731,-0.1661,-0.1455,0,0,0,0,0,-0.1262,-0.1269,-0.1322,-0.1386,-0.1464,-0.1509,-0.1633,-0.171,-0.1842,-0.1754,-0.1827,-0.1778,-0.1705,-0.1728,-0.1612,-0.1768,-0.1781,-0.1628,-0.1741,-0.181,-0.1832,-0.1801,0,0,0,0,0,0,-0.121,-0.1255,-0.1272,-0.1247,-0.1251,-0.1317,-0.1381,-0.1478,-0.1447,-0.1585,-0.1548,-0.1654,-0.1604,-0.172,-0.1564,-0.1569,-0.1601,-0.1663,-0.1658,-0.1798,-0.1818,-0.1836,-0.1811,0,0,0,0,0]},{"header":{"parameterUnit":"m.s-1","parameterCategory":2,"la1":30.2991,"la2":30.254,"lo1":-89.0895,"lo2":-89.0444,"dy":0.0017,"dx":0.0017,"nx":28,"ny":28,"refTime":"2026-01-04T03:00:00:Z","depth":"4","parameterNumber":3,"parameterNumberName":"V-component_of_CURRENTS"},"data":[0,0,0,0,0,0,0,0,0,0,0,0,0,0,0,0,0,0,0,0,0,0,0,0,0,0,0,0,0,0,0,0,0,0,0,0,0,0,0,0,0,0,0,0,0,0,0,0,0,0,0,0,0,0,0,0,0,0,-0.0189,-0.0189,0,-0.0151,-0.015,-0.015,-0.0114,-0.0113,-0.0113,-0.0113,-0.0018,-0.0016,-0.0014,0,0,0,0,0,0,0,0,0,0,0,0,0,-0.0182,-0.0183,-0.0189,-0.0189,-0.0189,-0.0151,-0.015,-0.015,-0.0114,-0.0113,-0.0113,-0.0112,-0.0019,-0.0016,-0.0014,0,0,0,0,0,0,0,0,0,0,0,0,0,-0.0168,-0.0183,-0.0189,-0.0167,-0.0165,-0.0151,-0.015,-0.015,-0.0114,-0.0113,-0.0113,-0.0112,-0.002,-0.0017,-0.0013,-0.0003,0,0,-0.0003,-0.0002,0,0,0,0,0,0,0,0,-0.0168,-0.0168,-0.0171,-0.0169,-0.0166,-0.0138,-0.0113,-0.0098,-0.0114,-0.0132,-0.0113,-0.0112,-0.0054,-0.0048,-0.0041,0.0002,0.0006,-0.0003,-0.0001,0.0,0.0001,0,0,0,0,0,0,0,-0.017,-0.0169,-0.0173,-0.017,-0.0168,-0.0142,-0.014,-0.011,-0.0094,-0.013,-0.0128,-0.0126,-0.0052,-0.0044,-0.0038,0.0007,-0.0003,-0.0,0.0002,0.0003,0.0078,0.0078,0,0,0,0,0,0,-0.018,-0.017,-0.0174,-0.0172,-0.0168,-0.0143,-0.014,-0.0146,-0.0095,-0.0088,-0.0126,-0.0124,-0.005,-0.0042,-0.0035,-0.0013,0.0,0.0003,0.0005,0.0078,0.0078,0.0078,0,0,0,0,0,0,-0.0181,-0.0182,-0.0175,-0.017,-0.0168,-0.0144,-0.0151,-0.0146,-0.0138,-0.0094,-0.0085,-0.0124,-0.0049,-0.0039,-0.0011,-0.0009,0.0005,0.0008,0.0078,0.0078,0.0078,0.0027,0,0,0,0,0,0,-0.0181,-0.0182,-0.0191,-0.0172,-0.0169,-0.0174,-0.0151,-0.0145,-0.0138,-0.0135,-0.0089,-0.0079,-0.0048,-0.0016,-0.0008,-0.0004,0.0011,0.0078,0.0078,0.0078,0.0029,0.0025,0.0022,0,0,0,0,0,-0.0181,-0.0198,-0.0192,-0.0192,-0.0182,-0.0174,-0.017,-0.015,-0.0139,-0.014,-0.0107,-0.0081,-0.001,-0.0014,-0.0004,0.0001,0.0078,0.0078,0.0078,0.003,0.0026,0.0023,0,0,0,0,0,0,-0.0201,-0.0195,-0.0188,-0.0203,-0.0192,-0.0169,-0.017,-0.0155,-0.0132,-0.0128,-0.0083,-0.0071,-0.0046,-0.0017,-0.0022,0.0023,0.0039,0.0041,-0.0,-0.0004,-0.0007,-0.0013,0.0013,0,0,0,0,0,-0.0211,-0.0221,-0.0207,-0.0219,-0.0216,-0.0193,-0.0188,-0.0175,-0.0152,-0.0142,-0.0109,-0.0071,-0.0039,-0.0018,0.0012,0.0036,0.0073,0.0047,0.0044,0.0041,0.0043,0.0095,0.0097,0.0078,0.0078,0.0078,0,0,-0.0222,-0.022,-0.0226,-0.0224,-0.0213,-0.0214,-0.0189,-0.0187,-0.0182,-0.0134,-0.0117,-0.0084,-0.0036,-0.0011,0.0004,0.0015,0.0065,0.0041,0.0038,0.0042,0.0095,0.0097,0.0099,0.0078,0.0078,0.0078,0,0,-0.0248,-0.0248,-0.0263,-0.0258,-0.0249,-0.0234,-0.0236,-0.0215,-0.02,-0.0183,-0.0145,-0.011,-0.0066,-0.0027,-0.0002,-0.0003,0.0042,0.0005,-0.001,0.004,0.0042,0.0044,0.0088,0.0094,0.0008,0.0008,0.0008,0,-0.0261,-0.028,-0.0265,-0.0276,-0.0276,-0.0246,-0.0257,-0.0238,-0.021,-0.0195,-0.0184,-0.011,-0.0071,-0.0027,-0.0027,-0.0009,0.0022,-0.0002,0.0035,0.0038,0.0041,0.0086,0.0094,0.0005,0.0006,0.0006,0.0006,0,-0.0295,-0.0309,-0.0317,-0.032,-0.0316,-0.0323,-0.0298,-0.0286,-0.0264,-0.0238,-0.0198,-0.0144,-0.0098,-0.0079,-0.0052,-0.001,0.0006,0.002,0.0042,0.004,0.0087,0.0096,0.0002,0.0003,0.0003,0.0004,0,0,-0.0327,-0.034,-0.0344,-0.0356,-0.0342,-0.0347,-0.0333,-0.0313,-0.0305,-0.0262,-0.024,-0.0177,-0.0145,-0.0114,-0.0071,-0.0023,0.0026,0.0004,0.0008,0.0043,0.0133,0.0117,0.0126,0.0045,0.0046,0.0047,0.0155,0,-0.0357,-0.0395,-0.0386,-0.0414,-0.0429,-0.0399,-0.0393,-0.0367,-0.0333,-0.0303,-0.0232,-0.0198,-0.0158,-0.0137,-0.0083,-0.0004,0.0048,-0.0004,0.0134,0.0138,0.0121,0.0136,0.0052,0.0162,0.0164,0.0165,0.0166,0,-0.0392,-0.0414,-0.0452,-0.0468,-0.0471,-0.048,-0.0465,-0.0455,-0.0395,-0.0366,-0.0308,-0.0253,-0.0174,-0.0145,-0.0003,-0.0041,0.0041,0.0107,0.0113,0.0124,0.014,0.0168,0.0184,0.0182,0.0181,0.018,0.0179,0,-0.0429,-0.0459,-0.0495,-0.0501,-0.0509,-0.0518,-0.0517,-0.0477,-0.0467,-0.0403,-0.0382,-0.0284,-0.0231,-0.012,0.0014,0.0007,0.0172,0.018,0.0249,0.0249,0.0253,0.025,0.0288,0.0287,0.0287,0.0287,0.0287,0,-0.0462,-0.0493,-0.0521,-0.0543,-0.0586,-0.057,-0.0593,-0.057,-0.0531,-0.0511,-0.0422,-0.0373,-0.0221,-0.0108,0.0008,0.0154,0.0171,0.0252,0.0278,0.0228,0.0221,0.026,0.0255,0.0291,0.029,0.0289,0.0289,0,-0.0491,-0.0509,-0.056,-0.0592,-0.0608,-0.064,-0.0659,-0.0665,-0.0618,-0.0587,-0.0566,-0.0432,-0.0282,-0.0129,0.0064,0.0143,0.0284,0.0336,0.027,0.029,0.0331,0.0322,0.0418,0.0418,0.0419,0.0419,0.0419,0,-0.0507,-0.0536,-0.0607,-0.0651,-0.0672,-0.0715,-0.0741,-0.0716,-0.071,-0.0613,-0.0592,-0.0443,-0.0339,-0.0074,0.0076,0.029,0.0321,0.0384,0.036,0.033,0.0346,0.0337,0.0328,0.042,0.042,0.042,0.042,0,-0.0535,-0.0566,-0.061,-0.0704,-0.0756,-0.0804,-0.0829,-0.0829,-0.0774,-0.0735,-0.0588,-0.0436,-0.0263,-0.0065,0.0101,0.0254,0.0332,0.0389,0.0389,0.0366,0.0333,0.0347,0.0338,0.0421,0.0421,0.0421,0.0421,0,-0.0555,-0.0599,-0.0666,-0.0742,-0.0819,-0.0863,-0.0875,-0.0839,-0.0814,-0.0689,-0.0638,-0.0434,-0.0307,-0.0082,0.0071,0.0214,0.0247,0.0281,0.0288,0.0288,0.021,0.0146,0.0205,0,0,0,0,0,-0.0567,-0.0618,-0.0698,-0.0783,-0.0862,-0.0894,-0.0917,-0.0908,-0.0851,-0.0751,-0.0686,-0.0512,-0.025,-0.0132,0.001,0.0048,0.0241,0.0215,0.0276,0.0428,0.0426,0.0354,0,0,0,0,0,0,-0.0578,-0.0653,-0.0695,-0.0796,-0.0856,-0.0924,-0.0937,-0.09,-0.0829,-0.0747,-0.0602,-0.0494,-0.0244,-0.0327,0.0011,0.0055,0.0108,0.0346,0.0349,0.0428,0.0427,0.0426,0.0351,0,0,0,0,0]}]]